Вернуться в каталог

ONEWEB-0186

АктивенСвязьPO
NORAD 48229·PAYLOAD·🇬🇧 United Kingdom

Запущен Apr 25, 2021 с Vostochny Cosmodrome

Loading…

Ближайшие Пролёты (ближайшие 24 часа)

TLE

СвежийSource: CelesTrak SupGP

Эпоха: Sep 14, 2026, 14:05 UTC

1 48229C 21031V   26257.58699491 -.00000990  00000+0 -26733-2 0  2574
2 48229  87.8908 271.8751 0001855  90.3609  59.3051 13.14506976    10

Отслеживайте ONEWEB-0186 в реальном времени с AllMySat

Download on the App Store